Location: Gand�
(15.0971°N, 12.6564°W)
Time: 15:20:26
(UTC+00:00)

Cosmos 1844 - Pass Details

Date: 07 August 2020
Orbit: 824 x 866 km, 70.9° (Epoch: 20 September)

Event Time Altitude Azimuth Distance (km) Brightness Sun altitude
Exits shadow 05:21:07 21° 210° (SSW) 1,853 5.0 -17.5°
Maximum altitude 05:25:02 65° 287° (WNW) 945 3.7 -16.7°
Drops below altitude 10° 05:30:45 10° 9° (N) 2,502 6.6 -15.4°
Sets 05:33:14 0° 12° (NNE) 3,438 7.4 -14.8°
